Powrót do katalogu

FENGYUN 1C DEB

AktywnySSO
NORAD 30200·DEBRIS·🇨🇳 China

Wystrzelony May 10, 1999 z Taiyuan Satellite Launch Center

Loading…

Następne Przeloty (najbliższe 24 godziny)

TLE

ŚwieżeSource: Space-Track

Epoka: Sep 14, 2026, 07:47 UTC

1 30200U 99025VH  26257.32445287  .00000150  00000-0  79337-4 0  9996
2 30200  99.0945 106.2510 0147093  31.7562 329.2383 14.22461938 18960

Śledź FENGYUN 1C DEB w czasie rzeczywistym z AllMySat

Download on the App Store